Weather History for YPAD - August, 2013

Change the Weather History Date:

Friday, August 23, 2013

  Actual Average Record
Temperature  
Mean Temperature 55 °F -  
Max Temperature 57 °F 63 °F 69 °F (2006)
Min Temperature 53 °F 48 °F 37 °F (1999)
Degree Days  
Heating Degree Days 10    
Growing Degree Days 5 (Base 50)    
Moisture  
Dew Point 52 °F    
Average Humidity 90    
Maximum Humidity 100    
Minimum Humidity 77    
Precipitation  
Precipitation 0.08 in 0.06 in - ()
Sea Level Pressure  
Sea Level Pressure 30.11 in    
Wind  
Wind Speed 11 mph ()    
Max Wind Speed 18 mph    
Max Gust Speed -    
Visibility 5.6 miles    
Events Rain    
Averages and records for this station are not official NWS values.
T = Trace of Precipitation, MM = Missing Value Source: Averaged Metar Reports

Daily Weather History Graph

Daily Weather History Graph

Search for Another Location

Airport or City:

Trip Planner

Search our weather history database for the weather conditions in past years. The results will help you decide how hot, cold, wet, or windy it might be!

Date:

Astronomy

Aug. 23, 2013 Rise Set
Actual Time 6:47 AM ACST 5:50 PM ACST
Civil Twilight 6:21 AM ACST 6:16 PM ACST
Nautical Twilight 5:51 AM ACST 6:45 PM ACST
Astronomical Twilight 5:22 AM ACST 7:15 PM ACST
Moon 8:21 PM ACST (8/23) 7:40 AM ACST (8/23)
Length of Visible Light 11h 54m
Length of Day
11h 03m
Waning Gibbous, 95% of the Moon is Illuminated
Aug 23
Waning Gibbous
Aug 28
Last Quarter
Sep 5
New
Sep 13
First Quarter
Sep 19
Full

Hourly Weather History & Observations

Time (ACST) Temp. Dew Point Humidity Pressure Visibility Wind Dir Wind Speed Gust Speed Precip Events Conditions
12:00 AM 55 °F 53 °F 90% 30.03 in 9 mi West 10.4 mph - -   Partly Cloudy
12:00 AM 55.4 °F 53.6 °F 94% 30.01 in 6.2 mi West 10.4 mph - N/A   Mostly Cloudy
12:30 AM 55 °F 53 °F 90% 30.03 in - WSW 11.5 mph - -  
12:30 AM 55.4 °F 53.6 °F 94% 30.01 in 6.2 mi WSW 11.5 mph - N/A   Mostly Cloudy
1:00 AM 55.4 °F 53.6 °F 94% 30.01 in 6.2 mi West 12.7 mph - N/A   Mostly Cloudy
1:30 AM 55.4 °F 51.8 °F 88% 30.01 in 6.2 mi West 11.5 mph - N/A   Mostly Cloudy
2:00 AM 55.4 °F 50.0 °F 82% 30.01 in 6.2 mi WSW 12.7 mph - N/A   Mostly Cloudy
2:30 AM 55.4 °F 50.0 °F 82% 30.01 in 6.2 mi WSW 10.4 mph - N/A   Mostly Cloudy
3:00 AM 55 °F 50 °F 77% 30.01 in 9 mi West 13.8 mph - -   Mostly Cloudy
3:00 AM 55.4 °F 50.0 °F 82% 30.01 in 6.2 mi West 13.8 mph - N/A   Mostly Cloudy
3:30 AM 55.4 °F 51.8 °F 88% 30.01 in 6.2 mi West 12.7 mph - N/A   Mostly Cloudy
4:00 AM 55.4 °F 51.8 °F 88% 30.01 in 3.7 mi West 12.7 mph - N/A Rain Light Rain Showers
4:22 AM 55.4 °F 51.8 °F 88% 30.01 in 6.2 mi WSW 15.0 mph - N/A   Mostly Cloudy
4:30 AM 55.4 °F 51.8 °F 88% 30.01 in 6.2 mi WSW 12.7 mph - N/A Rain Light Rain Showers
5:00 AM 55.4 °F 51.8 °F 88% 30.01 in 6.2 mi West 15.0 mph - N/A   Mostly Cloudy
5:21 AM 53.6 °F 51.8 °F 94% 30.01 in 2.5 mi West 13.8 mph - N/A Rain Light Rain Showers
5:30 AM 53.6 °F 51.8 °F 94% 30.04 in 3.7 mi West 18.4 mph - N/A Rain Light Rain Showers
5:45 AM 53.6 °F 51.8 °F 94% 30.04 in 6.2 mi WSW 15.0 mph - N/A   Mostly Cloudy
6:00 AM 53.6 °F 51.8 °F 94% 30.04 in 6.2 mi West 15.0 mph - N/A   Mostly Cloudy
6:30 AM 54 °F 52 °F 91% 30.06 in - WSW 13.8 mph - -  
6:30 AM 55.4 °F 51.8 °F 88% 30.04 in 6.2 mi WSW 13.8 mph - N/A   Mostly Cloudy
6:37 AM 55.4 °F 51.8 °F 88% 30.04 in 2.5 mi West 13.8 mph - N/A Rain Light Rain Showers
6:41 AM 53.6 °F 51.8 °F 94% 30.04 in 1.2 mi West 12.7 mph - N/A Rain Rain Showers
6:49 AM 53.6 °F 51.8 °F 94% 30.04 in 6.2 mi West 16.1 mph - N/A Rain Light Rain Showers
7:00 AM 53.6 °F 53.6 °F 100% 30.06 in 6.2 mi West 13.8 mph - N/A   Mostly Cloudy
7:30 AM 55.4 °F 53.6 °F 94% 30.06 in 2.5 mi West 13.8 mph - N/A Rain Light Rain Showers
8:00 AM 55.4 °F 53.6 °F 94% 30.06 in 3.1 mi West 15.0 mph - N/A Rain Light Rain Showers
8:07 AM 55.4 °F 53.6 °F 94% 30.06 in 6.2 mi West 15.0 mph - N/A   Mostly Cloudy
8:22 AM 55.4 °F 53.6 °F 94% 30.09 in 3.1 mi West 15.0 mph - N/A Rain Light Rain Showers
8:30 AM 55.4 °F 53.6 °F 94% 30.09 in 3.7 mi West 15.0 mph - N/A   Mostly Cloudy
8:42 AM 55.4 °F 53.6 °F 94% 30.09 in 1.9 mi West 13.8 mph - N/A Rain Light Rain Showers
9:00 AM 55.4 °F 53.6 °F 94% 30.09 in 1.9 mi West 13.8 mph - N/A Rain Light Rain Showers
9:30 AM 55 °F 53 °F 92% 30.12 in - West 11.5 mph - -  
9:30 AM 55.4 °F 53.6 °F 94% 30.12 in 1.9 mi West 11.5 mph - N/A Rain Light Rain Showers
10:00 AM 55.4 °F 53.6 °F 94% 30.12 in 3.1 mi SW 13.8 mph - N/A Rain Light Rain Showers
10:30 AM 55.4 °F 53.6 °F 94% 30.12 in 6.2 mi SSW 11.5 mph - N/A   Mostly Cloudy
11:00 AM 55.4 °F 53.6 °F 94% 30.15 in 6.2 mi WSW 10.4 mph - N/A   Mostly Cloudy
11:30 AM 57.2 °F 51.8 °F 82% 30.12 in 6.2 mi SW 15.0 mph - N/A   Mostly Cloudy
12:00 PM 57.2 °F 50.0 °F 77% 30.12 in 6.2 mi WSW 16.1 mph - N/A   Mostly Cloudy
12:30 PM 57.2 °F 50.0 °F 77% 30.12 in 6.2 mi SW 13.8 mph - N/A   Mostly Cloudy
1:00 PM 57.2 °F 50.0 °F 77% 30.12 in 6.2 mi WSW 16.1 mph - N/A   Mostly Cloudy
1:30 PM 57.2 °F 50.0 °F 77% 30.12 in 6.2 mi SW 15.0 mph - N/A   Mostly Cloudy
2:00 PM 57.2 °F 50.0 °F 77% 30.12 in 6.2 mi WSW 12.7 mph - N/A   Mostly Cloudy
2:30 PM 57.2 °F 51.8 °F 82% 30.12 in 6.2 mi WSW 11.5 mph - N/A Rain Light Rain Showers
2:35 PM 55.4 °F 51.8 °F 88% 30.12 in 3.7 mi SW 12.7 mph - N/A Rain Light Rain Showers
3:00 PM 57 °F 54 °F 84% 30.15 in 16 mi West 9.2 mph - - Rain Light Rain Showers
3:00 PM 57.2 °F 53.6 °F 88% 30.12 in 6.2 mi West 9.2 mph - N/A   Mostly Cloudy
3:21 PM 55.4 °F 53.6 °F 94% 30.12 in 3.7 mi West 11.5 mph - N/A Rain Light Rain Showers
3:30 PM 55.4 °F 53.6 °F 94% 30.12 in 6.2 mi SW 17.3 mph - N/A   Mostly Cloudy
4:00 PM 55.4 °F 53.6 °F 94% 30.15 in 3.7 mi SW 17.3 mph - N/A Rain Light Rain Showers
4:18 PM 55.4 °F 51.8 °F 88% 30.15 in 6.2 mi SW 12.7 mph - N/A   Mostly Cloudy
4:30 PM 55.4 °F 51.8 °F 88% 30.15 in 6.2 mi SW 10.4 mph - N/A   Mostly Cloudy
5:00 PM 57.2 °F 51.8 °F 82% 30.15 in 6.2 mi West 11.5 mph - N/A   Mostly Cloudy
5:30 PM 55.4 °F 51.8 °F 88% 30.15 in 6.2 mi WSW 12.7 mph - N/A   Mostly Cloudy
6:00 PM 55.4 °F 51.8 °F 88% 30.18 in 6.2 mi West 9.2 mph - N/A   Mostly Cloudy
6:30 PM 56 °F 52 °F 83% 30.20 in - West 10.4 mph - -  
6:30 PM 55.4 °F 51.8 °F 88% 30.18 in 6.2 mi West 10.4 mph - N/A   Mostly Cloudy
7:00 PM 55.4 °F 51.8 °F 88% 30.21 in 3.7 mi SW 15.0 mph - N/A Rain Light Rain Showers
7:19 PM 55.4 °F 53.6 °F 94% 30.21 in 4.3 mi SW 10.4 mph - N/A Rain Light Rain Showers
7:30 PM 55.4 °F 53.6 °F 94% 30.21 in 6.2 mi SW 9.2 mph - N/A   Mostly Cloudy
8:00 PM 55.4 °F 53.6 °F 94% 30.21 in 6.2 mi SSW 4.6 mph - N/A   Mostly Cloudy
8:18 PM 55.4 °F 53.6 °F 94% 30.21 in 3.7 mi SSW 4.6 mph - N/A Rain Light Rain Showers
8:30 PM 55.4 °F 53.6 °F 94% 30.24 in 3.7 mi SSW 5.8 mph - N/A Rain Light Rain Showers
8:42 PM 55.4 °F 53.6 °F 94% 30.24 in 6.2 mi SSW 1.2 mph - N/A   Mostly Cloudy
9:00 PM 55 °F 53 °F 89% 30.25 in 12 mi WSW 5.8 mph - - Rain Light Rain Showers
9:00 PM 55.4 °F 53.6 °F 94% 30.24 in 6.2 mi WSW 5.8 mph - N/A   Mostly Cloudy
9:30 PM 55 °F 53 °F 90% 30.25 in - West 4.6 mph - -  
9:30 PM 55.4 °F 53.6 °F 94% 30.24 in 6.2 mi West 4.6 mph - N/A   Mostly Cloudy
10:00 PM 55.4 °F 53.6 °F 94% 30.24 in 6.2 mi SSW 4.6 mph - N/A   Mostly Cloudy
10:30 PM 55.4 °F 51.8 °F 88% 30.24 in 6.2 mi SSW 5.8 mph - N/A   Mostly Cloudy
11:00 PM 53.6 °F 51.8 °F 94% 30.24 in 6.2 mi South 8.1 mph - N/A   Mostly Cloudy
11:30 PM 53.6 °F 51.8 °F 94% 30.24 in 6.2 mi SSW 4.6 mph - N/A   Mostly Cloudy